Location: Rogalle
(42.8890°N, 1.1916°E)
Time: 02:23:47
(UTC+00:00)

Cosmos 1484 Rocket - Pass Details

Date: 13 December 2025
Orbit: 439 x 472 km, 97.6° (Epoch: 12 January)

Event Time Altitude Azimuth Distance (km) Brightness Sun altitude
Rises 16:55:32 0° 171° (S) 2,508 6.4 -6.3°
Reaches altitude 10° 16:57:35 10° 174° (S) 1,632 5.5 -6.7°
Maximum altitude 17:01:05 70° 258° (WSW) 504 2.9 -7.3°
Drops below altitude 10° 17:04:34 10° 343° (NNW) 1,632 5.2 -7.8°
Sets 17:06:38 0° 346° (NNW) 2,507 6.1 -8.2°
